Location: Burtsch�tz
(51.0528°N, 12.1764°E)
Time: 07:38:40
(UTC+00:00)

USA 306 - Pass Details

Date: 29 October 2020
Orbit: 569 x 576 km, 54.0° (Epoch: 30 November)

Event Time Altitude Azimuth Distance (km) Brightness Sun altitude
Rises 16:15:25 0° 289° (WNW) 2,794 7.5 -4.6°
Reaches altitude 10° 16:17:41 10° 291° (WNW) 1,893 6.5 -4.9°
Maximum altitude 16:22:00 75° 17° (NNE) 601 2.9 -5.6°
Drops below altitude 10° 16:26:18 10° 103° (ESE) 1,883 5.0 -6.2°
Enters shadow 16:27:26 - 105° (ESE) 2,330 5.5 -6.4°
